| time (UTC) | temp F | wind direction | speed MPH | gust MPH | rain 1hr in | rain 24hr in | rain mn in | humidity % | barometer mb |
| 20260510231533 | 79 | 216 | 8.0 | 17.0 | 0.00 | 0.00 | 0.00 | 15 | 1014.9 |
| 20260510230032 | 79 | 282 | 11.0 | 24.0 | 0.00 | 0.00 | 0.00 | 15 | 1014.9 |
| 20260510224531 | 79 | 234 | 12.0 | 18.0 | 0.00 | 0.00 | 0.00 | 14 | 1014.9 |
| 20260510223033 | 79 | 214 | 11.0 | 20.0 | 0.00 | 0.00 | 0.00 | 15 | 1015.0 |
| 20260510221530 | 81 | 262 | 9.0 | 17.0 | 0.00 | 0.00 | 0.00 | 15 | 1015.1 |
| 20260510220032 | 81 | 232 | 9.0 | 17.0 | 0.00 | 0.00 | 0.00 | 16 | 1015.4 |
| 20260510214529 | 79 | 211 | 8.0 | 19.0 | 0.00 | 0.00 | 0.00 | 17 | 1015.7 |
| 20260510213041 | 79 | 256 | 8.0 | 17.0 | 0.00 | 0.00 | 0.00 | 18 | 1015.9 |
| 20260510211532 | 79 | 231 | 10.0 | 18.0 | 0.00 | 0.00 | 0.00 | 19 | 1016.0 |
| 20260510210044 | 79 | 160 | 4.0 | 14.0 | 0.00 | 0.00 | 0.00 | 18 | 1016.2 |
| 20260510204539 | 78 | 232 | 7.0 | 14.0 | 0.00 | 0.00 | 0.00 | 20 | 1016.4 |
| 20260510203035 | 77 | 209 | 12.0 | 17.0 | 0.00 | 0.00 | 0.00 | 18 | 1016.7 |
| 20260510201532 | 78 | 255 | 9.0 | 15.0 | 0.00 | 0.00 | 0.00 | 18 | 1016.7 |
| 20260510200030 | 77 | 290 | 8.0 | 20.0 | 0.00 | 0.00 | 0.00 | 18 | 1016.8 |
| 20260510194534 | 77 | 215 | 8.0 | 17.0 | 0.00 | 0.00 | 0.00 | 18 | 1017.0 |
| 20260510193032 | 75 | 265 | 8.0 | 15.0 | 0.00 | 0.00 | 0.00 | 20 | 1017.2 |
| 20260510191536 | 75 | 225 | 10.0 | 20.0 | 0.00 | 0.00 | 0.00 | 22 | 1017.4 |
| 20260510190036 | 74 | 190 | 7.0 | 16.0 | 0.00 | 0.00 | 0.00 | 22 | 1017.5 |
| 20260510184535 | 74 | 259 | 8.0 | 14.0 | 0.00 | 0.00 | 0.00 | 23 | 1017.5 |
| 20260510183031 | 73 | 202 | 7.0 | 16.0 | 0.00 | 0.00 | 0.00 | 24 | 1017.8 |
| 20260510181558 | 73 | 265 | 9.0 | 17.0 | 0.00 | 0.00 | 0.00 | 25 | 1017.9 |
| 20260510180039 | 71 | 209 | 9.0 | 18.0 | 0.00 | 0.00 | 0.00 | 28 | 1018.1 |
| 20260510174550 | 71 | 150 | 9.0 | 18.0 | 0.00 | 0.00 | 0.00 | 31 | 1018.1 |
| 20260510173030 | 70 | 156 | 10.0 | 16.0 | 0.00 | 0.00 | 0.00 | 30 | 1018.2 |
| 20260510171530 | 69 | 183 | 12.0 | 19.0 | 0.00 | 0.00 | 0.00 | 32 | 1018.6 |
| 20260510170029 | 69 | 158 | 11.0 | 19.0 | 0.00 | 0.00 | 0.00 | 33 | 1018.8 |
| 20260510164534 | 68 | 171 | 10.0 | 19.0 | 0.00 | 0.00 | 0.00 | 36 | 1019.1 |
| 20260510163030 | 67 | 180 | 14.0 | 23.0 | 0.00 | 0.00 | 0.00 | 37 | 1019.2 |
| 20260510161533 | 66 | 163 | 9.0 | 19.0 | 0.00 | 0.00 | 0.00 | 43 | 1019.2 |
| 20260510160038 | 64 | 147 | 13.0 | 17.0 | 0.00 | 0.00 | 0.00 | 46 | 1019.5 |
| 20260510154529 | 63 | 178 | 9.0 | 15.0 | 0.00 | 0.01 | 0.00 | 49 | 1019.7 |
| 20260510153032 | 61 | 178 | 9.0 | 13.0 | 0.00 | 0.01 | 0.00 | 52 | 1020.0 |
| 20260510151531 | 59 | 157 | 4.0 | 9.0 | 0.00 | 0.01 | 0.00 | 58 | 1020.3 |
| 20260510150032 | 56 | 186 | 1.0 | 6.0 | 0.00 | 0.01 | 0.00 | 67 | 1020.4 |
| 20260510144533 | 55 | 146 | 6.0 | 10.0 | 0.00 | 0.01 | 0.00 | 67 | 1020.6 |
| 20260510143031 | 54 | 149 | 1.0 | 5.0 | 0.00 | 0.01 | 0.00 | 70 | 1020.6 |
| 20260510141535 | 52 | 343 | 0.0 | 3.0 | 0.00 | 0.01 | 0.00 | 73 | 1020.7 |
| 20260510140032 | 48 | 322 | 0.0 | 4.0 | 0.00 | 0.01 | 0.00 | 82 | 1020.8 |
| 20260510134530 | 46 | 322 | 3.0 | 5.0 | 0.00 | 0.01 | 0.00 | 82 | 1020.8 |
| 20260510133031 | 47 | 0 | 0.0 | 2.0 | 0.00 | 0.01 | 0.00 | 83 | 1020.9 |
| 20260510131531 | 42 | 0 | 1.0 | 4.0 | 0.00 | 0.01 | 0.00 | 89 | 1021.0 |
| 20260510130029 | 40 | 317 | 3.0 | 5.0 | 0.00 | 0.01 | 0.00 | 89 | 1021.1 |
| 20260510124532 | 39 | 0 | 0.0 | 3.0 | 0.00 | 0.03 | 0.00 | 90 | 1021.2 |
| 20260510123032 | 39 | 0 | 0.0 | 0.0 | 0.00 | 0.03 | 0.00 | 91 | 1021.0 |
| 20260510121531 | 39 | 0 | 0.0 | 0.0 | 0.00 | 0.03 | 0.00 | 90 | 1021.0 |
| 20260510120034 | 39 | 0 | 0.0 | 2.0 | 0.00 | 0.03 | 0.00 | 91 | 1020.9 |
| 20260510114531 | 39 | 0 | 0.0 | 0.0 | 0.00 | 0.03 | 0.00 | 91 | 1021.0 |
| 20260510113028 | 40 | 0 | 0.0 | 0.0 | 0.00 | 0.03 | 0.00 | 91 | 1021.2 |
| 20260510111532 | 40 | 0 | 0.0 | 0.0 | 0.00 | 0.03 | 0.00 | 90 | 1021.1 |
| 20260510110110 | 41 | 0 | 0.0 | 0.0 | 0.00 | 0.03 | 0.00 | 90 | 1021.1 |
| 20260510110034 | 41 | 0 | 0.0 | 0.0 | 0.00 | 0.03 | 0.00 | 90 | 1021.1 |
| 20260510104530 | 41 | 0 | 0.0 | 0.0 | 0.00 | 0.03 | 0.00 | 90 | 1021.3 |
| 20260510103029 | 41 | 0 | 0.0 | 0.0 | 0.00 | 0.03 | 0.00 | 89 | 1021.3 |
| 20260510101530 | 42 | 0 | 0.0 | 0.0 | 0.00 | 0.03 | 0.00 | 88 | 1021.4 |
| 20260510100043 | 42 | 0 | 0.0 | 0.0 | 0.00 | 0.03 | 0.00 | 87 | 1021.3 |
| 20260510094532 | 43 | 0 | 0.0 | 0.0 | 0.00 | 0.05 | 0.00 | 85 | 1021.4 |
| 20260510093040 | 44 | 0 | 0.0 | 0.0 | 0.00 | 0.05 | 0.00 | 84 | 1021.3 |
| 20260510091531 | 45 | 0 | 0.0 | 0.0 | 0.00 | 0.05 | 0.00 | 81 | 1021.5 |
| 20260510090035 | 46 | 0 | 0.0 | 7.0 | 0.00 | 0.05 | 0.00 | 78 | 1021.4 |
| 20260510084532 | 47 | 202 | 2.0 | 6.0 | 0.00 | 0.10 | 0.00 | 78 | 1021.4 |
| 20260510083033 | 47 | 0 | 0.0 | 6.0 | 0.00 | 0.10 | 0.00 | 78 | 1021.6 |
| 20260510081529 | 48 | 186 | 0.0 | 7.0 | 0.00 | 0.10 | 0.00 | 77 | 1021.5 |
| 20260510080031 | 48 | 173 | 2.0 | 6.0 | 0.00 | 0.10 | 0.00 | 77 | 1021.6 |
| 20260510074530 | 47 | 0 | 0.0 | 0.0 | 0.00 | 0.18 | 0.00 | 79 | 1021.6 |
| 20260510073030 | 49 | 0 | 0.0 | 3.0 | 0.00 | 0.18 | 0.00 | 75 | 1021.6 |
| 20260510071538 | 51 | 233 | 2.0 | 12.0 | 0.00 | 0.18 | 0.00 | 72 | 1021.6 |
| 20260510070031 | 50 | 225 | 4.0 | 8.0 | 0.00 | 0.18 | 0.00 | 75 | 1021.5 |
| 20260510064530 | 51 | 166 | 2.0 | 5.0 | 0.00 | 0.18 | 0.00 | 74 | 1021.4 |
| 20260510063029 | 50 | 242 | 3.0 | 8.0 | 0.00 | 0.18 | 0.00 | 77 | 1021.4 |
| 20260510061540 | 50 | 207 | 3.0 | 7.0 | 0.00 | 0.18 | 0.00 | 76 | 1021.4 |
| 20260510060030 | 51 | 190 | 1.0 | 9.0 | 0.00 | 0.18 | 0.00 | 75 | 1021.3 |
| 20260510054532 | 49 | 253 | 2.0 | 4.0 | 0.00 | 0.21 | 0.18 | 78 | 1021.4 |
| 20260510053031 | 49 | 0 | 1.0 | 4.0 | 0.00 | 0.21 | 0.18 | 77 | 1021.3 |
| 20260510051532 | 51 | 0 | 0.0 | 0.0 | 0.00 | 0.21 | 0.18 | 73 | 1021.3 |
| 20260510050029 | 52 | 0 | 0.0 | 4.0 | 0.00 | 0.21 | 0.18 | 71 | 1021.3 |
| 20260510044530 | 52 | 145 | 1.0 | 8.0 | 0.00 | 0.21 | 0.18 | 71 | 1021.1 |
| 20260510043029 | 51 | 135 | 4.0 | 7.0 | 0.00 | 0.21 | 0.18 | 72 | 1021.1 |
| 20260510041532 | 53 | 135 | 1.0 | 3.0 | 0.00 | 0.21 | 0.18 | 69 | 1021.2 |
| 20260510040031 | 54 | 135 | 3.0 | 7.0 | 0.00 | 0.21 | 0.18 | 68 | 1021.0 |
| 20260510034530 | 55 | 0 | 0.0 | 0.0 | 0.00 | 0.21 | 0.18 | 68 | 1021.0 |
| 20260510033031 | 56 | 0 | 0.0 | 4.0 | 0.00 | 0.21 | 0.18 | 66 | 1020.8 |
| 20260510031542 | 58 | 0 | 0.0 | 3.0 | 0.00 | 0.21 | 0.18 | 60 | 1020.6 |
| 20260510030030 | 60 | 0 | 0.0 | 0.0 | 0.00 | 0.21 | 0.18 | 55 | 1020.3 |
| 20260510024541 | 62 | 0 | 0.0 | 3.0 | 0.00 | 0.21 | 0.18 | 52 | 1020.2 |
| 20260510023029 | 63 | 58 | 2.0 | 4.0 | 0.00 | 0.21 | 0.18 | 50 | 1020.1 |
| 20260510021534 | 64 | 0 | 0.0 | 3.0 | 0.00 | 0.21 | 0.18 | 48 | 1020.0 |
| 20260510020032 | 65 | 0 | 0.0 | 0.0 | 0.00 | 0.21 | 0.18 | 47 | 1020.0 |
| 20260510014534 | 66 | 0 | 0.0 | 4.0 | 0.00 | 0.21 | 0.18 | 43 | 1019.9 |
| 20260510013029 | 66 | 0 | 1.0 | 4.0 | 0.00 | 0.21 | 0.18 | 42 | 1019.9 |
| 20260510011542 | 67 | 95 | 2.0 | 6.0 | 0.00 | 0.21 | 0.18 | 45 | 1019.8 |
| 20260510010034 | 66 | 49 | 2.0 | 4.0 | 0.00 | 0.21 | 0.18 | 44 | 1019.9 |
| 20260510004533 | 65 | 49 | 0.0 | 6.0 | 0.00 | 0.21 | 0.18 | 47 | 1019.9 |
| 20260510003056 | 65 | 17 | 4.0 | 7.0 | 0.00 | 0.21 | 0.18 | 46 | 1020.0 |
| 20260510001531 | 65 | 32 | 4.0 | 7.0 | 0.00 | 0.21 | 0.18 | 47 | 1020.0 |
| 20260510000031 | 65 | 37 | 4.0 | 8.0 | 0.00 | 0.21 | 0.18 | 46 | 1020.0 |
| 20260509234530 | 66 | 69 | 4.0 | 8.0 | 0.00 | 0.21 | 0.18 | 45 | 1019.9 |
| 20260509233032 | 67 | 27 | 7.0 | 10.0 | 0.00 | 0.21 | 0.18 | 43 | 1019.9 |